Погода в Перемилово

Россия / Ивановская область     57°15′07″N   41°30′49″E
темп.,
°C
ветер,
м/с
пор.,
м/с
влажн.,
%
обл.,
%
осадки,
мм/ч
давл.,
гПа
погр.,
м
4 июля, пн
пн400:00+14ююз228317 0.0 101611
03:00+13в11864 0.0 101610
06:00+16всв24815 0.0 1016139
09:00+21всв446535 0.0 1017736
12:00+23св23485 0.0 10161463
15:00+25св23415 0.0 10161801
18:00+25всв13525 0.0 10151926
21:00+18сз00605 0.0 101511
5 июля, вт
вт500:00+15в11726 0.0 101611
03:00+14вюв11825 0.0 101711
06:00+17ююв11755 0.0 101778
09:00+21ююв22601 0.0 1017440
12:00+25ююв22495 0.0 10171394
15:00+26ю22420 0.0 10161757
18:00+25юв34551 0.0 1014191
21:00+19ююв48725 0.0 1014129
6 июля, ср
ср600:00+19ю51257100 0.0 1014316
03:00+16юз347713 0.0 101480
06:00+18ююз488634 0.1 1014270
09:00+23зюз4671100 0.7 1014757
12:00+26зюз4556100 0.1 10141475
15:00+26юз4560100 0.6 10131237
18:00+24з127398 1.8 101354
21:00+19зюз2290100 2.7 101334
7 июля, чт
чт700:00+18ю1190100 1.3 101211
03:00+17ю3395100 1.5 101247
06:00+19ююз379399 0.0 1012215
09:00+20ююз4691100 0.4 1012219
12:00+26юз576092 0.4 10121616
15:00+24зюз587088 0.9 1013902
18:00+22зсз587717 0.4 1014664
21:00+20сз367999 0.4 1015216
8 июля, пт
пт800:00+15ссз22874 0.0 101622
03:00+15с229318 0.0 101716
06:00+17всв238661 0.0 1018139
09:00+22вюв23695 0.0 1018787
12:00+25юв345738 0.0 10171274
15:00+25ююз347464 1.3 1016733
18:00+24ю347569 0.9 1015232
21:00+18ю229175 1.9 101524